Bellingham, WA
on Thursday, December 13, 2012

Thursday
Previous Day Next Day
Daily Summary
 ActualAverageRecord
Temperature
Mean Temperature °F 38°F  
Max Temperature 44°F 44°F 62°F (1969)
Min Temperature 39°F 32°F 15°F (1972)
Degree Days
Heating Degree Days 24 27  
Month to date heating degree days 341  
Cooling Degree Days 0 0  
Month to date cooling degree days 0  
Year to date cooling degree days 42  
Moisture
Dew Point 38°F   
Average Humidity 87    
Maximum Humidity 100    
Minimum Humidity 66    
Precipitation
Precipitation 0.08 in 0.14 in 1.55 in (2001)
Month to date precipitation 1.96  
Year to date precipitation 33.57  
Wind
Wind Speed 4 mph   
Max Wind Speed 15 mph   
Max Gust Speed 21 mph   
Visibility 9 miles   
Events Rain   

Key: T is trace of precipitation, MM is missing value
Source: NWS Daily Summary
Time(PST)TemperatureDew PointHumidity Pressure Visibility Wind DirectionWind SpeedGust SpeedPrecipitationEvents Conditions
12:14 AM 41.0°F 39.2°F 93% 30.02 in 7.0 miles Calm Calm - N/A   Overcast
12:53 AM 41.0°F 39.9°F 96% 30.04 in 7.0 miles Calm Calm - N/A   Overcast
1:45 AM 41.0°F 39.2°F 93% 30.02 in 5.0 miles Calm Calm - 0.00 in Rain Light Rain
1:53 AM 41.0°F 39.9°F 96% 30.05 in 5.0 miles Calm Calm - 0.00 in Rain Light Rain
2:53 AM 41.0°F 39.9°F 96% 30.06 in 4.0 miles Calm Calm - 0.00 in Rain Light Rain
3:42 AM 41.0°F 39.2°F 93% 30.03 in 7.0 miles ENE 4.6 mph - 0.00 in Rain Light Rain
3:53 AM 41.0°F 39.9°F 96% 30.06 in 8.0 miles Calm Calm - 0.00 in   Overcast
4:53 AM 39.9°F 39.0°F 97% 30.05 in 10.0 miles SE 3.5 mph - N/A   Overcast
5:53 AM 41.0°F 39.0°F 93% 30.04 in 10.0 miles Calm Calm - N/A   Overcast
6:20 AM 39.2°F 39.2°F 100% 30.02 in 9.0 miles Calm Calm - 0.00 in Rain Light Rain
6:44 AM 41.0°F 39.2°F 93% 30.01 in 9.0 miles Calm Calm - 0.00 in Rain Light Rain
6:53 AM 41.0°F 39.0°F 93% 30.04 in 10.0 miles Calm Calm - 0.00 in Rain Light Rain
7:53 AM 39.9°F 39.0°F 97% 30.03 in 7.0 miles Calm Calm - 0.00 in   Overcast
8:53 AM 42.1°F 39.0°F 89% 30.01 in 10.0 miles SE 6.9 mph - N/A   Overcast
9:53 AM 43.0°F 37.0°F 80% 29.99 in 10.0 miles SSE 10.4 mph - N/A   Overcast
10:53 AM 44.1°F 37.0°F 76% 29.98 in 10.0 miles SSE 9.2 mph - N/A   Overcast
11:53 AM 44.1°F 36.0°F 73% 29.96 in 10.0 miles SSE 12.7 mph - N/A   Overcast
12:53 PM 44.1°F 35.1°F 71% 29.93 in 10.0 miles SE 11.5 mph 20.7 mph N/A   Overcast
1:53 PM 44.1°F 34.0°F 68% 29.90 in 10.0 miles SE 15.0 mph - N/A   Overcast
4:53 PM 44.6°F 33.8°F 66% 29.83 in 10.0 miles SSE 10.4 mph - N/A Rain Light Rain
5:48 PM 42.8°F 35.6°F 76% 29.82 in 10.0 miles SSE 10.4 mph - 0.00 in Rain Light Rain
5:53 PM 42.1°F 36.0°F 79% 29.84 in 10.0 miles SSE 11.5 mph - 0.00 in Rain Light Rain
6:17 PM 42.8°F 35.6°F 76% 29.81 in 10.0 miles SSE 11.5 mph - 0.00 in Rain Light Rain
6:43 PM 42.8°F 37.4°F 81% 29.81 in 10.0 miles SSE 10.4 mph - 0.00 in Rain Light Rain
6:53 PM 42.1°F 37.0°F 82% 29.83 in 10.0 miles SSE 9.2 mph - 0.00 in Rain Light Rain
7:53 PM 41.0°F 37.0°F 86% 29.83 in 10.0 miles SSE 6.9 mph - 0.00 in Rain Light Rain
8:53 PM 41.0°F 37.0°F 86% 29.82 in 10.0 miles SE 9.2 mph - 0.01 in Rain Light Rain
9:53 PM 39.2°F 37.4°F 93% 29.79 in 9.0 miles SE 10.4 mph - N/A Rain Light Rain
10:53 PM 39.9°F 37.0°F 89% 29.81 in 9.0 miles ESE 9.2 mph - 0.03 in Rain Light Rain
11:53 PM 39.9°F 37.0°F 89% 29.81 in 8.0 miles ESE 6.9 mph - 0.04 in Rain Light Rain
Moon Phase
Dec. 13 Dec. 20 Dec. 28 Jan. 04 Jan. 11
Sunrise:07:55 AM (PST) Moon Rise:08:07 AM (PST)12/13
Sunset:04:13 PM (PST) Moon Set:05:04 PM (PST)12/13

Copyright © 2014 The Weather Underground, Inc.